| time (UTC) | temp F | wind direction | speed MPH | gust MPH | rain 1hr in | rain 24hr in | rain mn in | humidity % | barometer mb |
| 20260903120600 | 63 | 0 | 0.0 | 1.0 | 0.01 | 0.01 | 0.01 | 94 | 1014.8 |
| 20260903120110 | 63 | 0 | 0.0 | 1.0 | 0.01 | 0.01 | 0.01 | 94 | 1014.7 |
| 20260903115559 | 63 | 0 | 0.0 | 0.0 | 0.01 | 0.01 | 0.01 | 94 | 1014.8 |
| 20260903115102 | 63 | 0 | 0.0 | 0.0 | 0.01 | 0.01 | 0.01 | 94 | 1014.7 |
| 20260903114604 | 63 | 0 | 0.0 | 1.0 | 0.01 | 0.01 | 0.01 | 94 | 1014.8 |
| 20260903114059 | 63 | 0 | 0.0 | 1.0 | 0.01 | 0.01 | 0.01 | 94 | 1014.9 |
| 20260903113559 | 63 | 0 | 0.0 | 1.0 | 0.01 | 0.01 | 0.01 | 94 | 1015.0 |
| 20260903113147 | 63 | 0 | 0.0 | 1.0 | 0.01 | 0.01 | 0.01 | 94 | 1014.9 |
| 20260903112600 | 63 | 0 | 0.0 | 1.0 | 0.01 | 0.01 | 0.01 | 94 | 1014.9 |
| 20260903112100 | 63 | 0 | 0.0 | 1.0 | 0.01 | 0.01 | 0.01 | 94 | 1015.0 |
| 20260903111605 | 63 | 0 | 0.0 | 1.0 | 0.01 | 0.01 | 0.01 | 94 | 1015.1 |
| 20260903111059 | 63 | 40 | 0.0 | 1.0 | 0.00 | 0.00 | 0.00 | 94 | 1014.9 |
| 20260903110559 | 63 | 0 | 0.0 | 0.0 | 0.00 | 0.00 | 0.00 | 94 | 1014.9 |
| 20260903110109 | 63 | 0 | 0.0 | 0.0 | 0.00 | 0.00 | 0.00 | 93 | 1015.0 |
| 20260903105602 | 63 | 0 | 0.0 | 0.0 | 0.00 | 0.00 | 0.00 | 93 | 1015.0 |
| 20260903105102 | 63 | 0 | 0.0 | 1.0 | 0.00 | 0.00 | 0.00 | 93 | 1014.9 |
| 20260903104619 | 63 | 0 | 0.0 | 1.0 | 0.00 | 0.00 | 0.00 | 93 | 1015.0 |
| 20260903104059 | 63 | 0 | 0.0 | 0.0 | 0.00 | 0.00 | 0.00 | 93 | 1015.0 |
| 20260903103602 | 63 | 0 | 0.0 | 1.0 | 0.00 | 0.00 | 0.00 | 93 | 1015.0 |
| 20260903103105 | 63 | 0 | 0.0 | 1.0 | 0.00 | 0.00 | 0.00 | 93 | 1015.0 |
| 20260903102600 | 63 | 0 | 0.0 | 1.0 | 0.00 | 0.00 | 0.00 | 93 | 1015.0 |
| 20260903102059 | 63 | 0 | 0.0 | 1.0 | 0.00 | 0.00 | 0.00 | 93 | 1014.8 |
| 20260903101620 | 63 | 0 | 0.0 | 1.0 | 0.00 | 0.00 | 0.00 | 93 | 1014.7 |
| 20260903101059 | 63 | 0 | 0.0 | 2.0 | 0.00 | 0.00 | 0.00 | 93 | 1014.6 |
| 20260903100559 | 63 | 0 | 0.0 | 2.0 | 0.00 | 0.00 | 0.00 | 93 | 1014.7 |
| 20260903100119 | 63 | 66 | 0.0 | 2.0 | 0.00 | 0.00 | 0.00 | 93 | 1014.7 |
| 20260903095557 | 63 | 53 | 0.0 | 0.0 | 0.00 | 0.00 | 0.00 | 93 | 1014.6 |
| 20260903095101 | 63 | 0 | 0.0 | 0.0 | 0.00 | 0.00 | 0.00 | 93 | 1014.7 |
| 20260903094605 | 63 | 0 | 0.0 | 1.0 | 0.00 | 0.00 | 0.00 | 93 | 1014.6 |
| 20260903094100 | 63 | 0 | 0.0 | 1.0 | 0.00 | 0.00 | 0.00 | 93 | 1014.8 |
| 20260903093600 | 63 | 259 | 0.0 | 1.0 | 0.00 | 0.00 | 0.00 | 93 | 1014.6 |
| 20260903093106 | 63 | 0 | 0.0 | 1.0 | 0.00 | 0.00 | 0.00 | 93 | 1014.8 |
| 20260903092559 | 63 | 75 | 0.0 | 1.0 | 0.00 | 0.00 | 0.00 | 93 | 1014.6 |
| 20260903092059 | 63 | 0 | 0.0 | 1.0 | 0.00 | 0.00 | 0.00 | 93 | 1014.8 |
| 20260903091602 | 63 | 0 | 0.0 | 1.0 | 0.00 | 0.00 | 0.00 | 93 | 1014.7 |
| 20260903091059 | 63 | 0 | 0.0 | 2.0 | 0.00 | 0.00 | 0.00 | 93 | 1014.8 |
| 20260903090559 | 63 | 0 | 0.0 | 2.0 | 0.00 | 0.00 | 0.00 | 93 | 1014.8 |
| 20260903090104 | 63 | 41 | 1.0 | 2.0 | 0.00 | 0.00 | 0.00 | 93 | 1014.6 |
| 20260903085559 | 63 | 0 | 0.0 | 2.0 | 0.00 | 0.00 | 0.00 | 93 | 1014.9 |
| 20260903085059 | 63 | 16 | 0.0 | 3.0 | 0.00 | 0.00 | 0.00 | 92 | 1014.9 |
| 20260903084610 | 63 | 0 | 0.0 | 3.0 | 0.00 | 0.00 | 0.00 | 92 | 1015.0 |
| 20260903084059 | 63 | 45 | 1.0 | 2.0 | 0.00 | 0.00 | 0.00 | 92 | 1015.0 |
| 20260903083600 | 63 | 0 | 0.0 | 1.0 | 0.00 | 0.00 | 0.00 | 92 | 1015.0 |
| 20260903083101 | 63 | 48 | 0.0 | 0.0 | 0.00 | 0.00 | 0.00 | 92 | 1015.0 |
| 20260903082559 | 63 | 0 | 0.0 | 0.0 | 0.00 | 0.00 | 0.00 | 92 | 1014.9 |
| 20260903082101 | 63 | 0 | 0.0 | 0.0 | 0.00 | 0.00 | 0.00 | 92 | 1015.0 |
| 20260903081614 | 63 | 0 | 0.0 | 0.0 | 0.00 | 0.00 | 0.00 | 92 | 1014.9 |
| 20260903081059 | 63 | 0 | 0.0 | 1.0 | 0.00 | 0.00 | 0.00 | 92 | 1015.1 |
| 20260903080601 | 63 | 0 | 0.0 | 2.0 | 0.00 | 0.00 | 0.00 | 92 | 1015.1 |
| 20260903080104 | 63 | 0 | 0.0 | 2.0 | 0.00 | 0.00 | 0.00 | 92 | 1015.1 |
| 20260903075600 | 63 | 2 | 0.0 | 2.0 | 0.00 | 0.00 | 0.00 | 92 | 1015.1 |
| 20260903075059 | 63 | 0 | 0.0 | 1.0 | 0.00 | 0.00 | 0.00 | 92 | 1015.2 |
| 20260903074601 | 63 | 0 | 0.0 | 1.0 | 0.00 | 0.00 | 0.00 | 92 | 1015.2 |
| 20260903074059 | 64 | 0 | 0.0 | 1.0 | 0.00 | 0.00 | 0.00 | 92 | 1015.1 |
| 20260903073600 | 64 | 0 | 0.0 | 1.0 | 0.00 | 0.00 | 0.00 | 92 | 1015.2 |
| 20260903073106 | 64 | 0 | 0.0 | 3.0 | 0.00 | 0.00 | 0.00 | 91 | 1015.2 |
| 20260903072559 | 64 | 360 | 0.0 | 3.0 | 0.00 | 0.00 | 0.00 | 91 | 1015.2 |
| 20260903072059 | 64 | 0 | 1.0 | 3.0 | 0.00 | 0.00 | 0.00 | 91 | 1015.1 |
| 20260903071613 | 64 | 0 | 0.0 | 2.0 | 0.00 | 0.00 | 0.00 | 91 | 1015.1 |
| 20260903071059 | 64 | 353 | 0.0 | 3.0 | 0.00 | 0.00 | 0.00 | 91 | 1014.9 |
| 20260903070600 | 64 | 8 | 0.0 | 3.0 | 0.00 | 0.00 | 0.00 | 91 | 1015.1 |
| 20260903070106 | 64 | 68 | 0.0 | 2.0 | 0.00 | 0.00 | 0.00 | 91 | 1015.1 |
| 20260903065602 | 64 | 0 | 0.0 | 3.0 | 0.00 | 0.00 | 0.00 | 91 | 1015.1 |
| 20260903065100 | 64 | 273 | 0.0 | 3.0 | 0.00 | 0.00 | 0.00 | 90 | 1015.2 |
| 20260903064602 | 64 | 0 | 0.0 | 2.0 | 0.00 | 0.00 | 0.00 | 90 | 1015.2 |
| 20260903064059 | 64 | 0 | 0.0 | 3.0 | 0.00 | 0.00 | 0.00 | 90 | 1015.3 |
| 20260903063600 | 64 | 0 | 0.0 | 3.0 | 0.00 | 0.00 | 0.00 | 90 | 1015.3 |
| 20260903063102 | 64 | 0 | 0.0 | 3.0 | 0.00 | 0.00 | 0.00 | 89 | 1015.4 |
| 20260903062601 | 64 | 339 | 0.0 | 2.0 | 0.00 | 0.00 | 0.00 | 89 | 1015.4 |
| 20260903062059 | 64 | 0 | 0.0 | 2.0 | 0.00 | 0.00 | 0.00 | 89 | 1015.3 |
| 20260903061605 | 64 | 0 | 0.0 | 2.0 | 0.00 | 0.00 | 0.00 | 89 | 1015.2 |
| 20260903061059 | 64 | 0 | 0.0 | 6.0 | 0.00 | 0.00 | 0.00 | 88 | 1015.4 |
| 20260903060601 | 65 | 0 | 0.0 | 6.0 | 0.00 | 0.00 | 0.00 | 88 | 1015.5 |
| 20260903060108 | 65 | 129 | 0.0 | 4.0 | 0.00 | 0.00 | 0.00 | 88 | 1015.6 |
| 20260903055559 | 65 | 296 | 0.0 | 4.0 | 0.00 | 0.00 | 0.00 | 87 | 1015.6 |
| 20260903055059 | 65 | 285 | 1.0 | 5.0 | 0.00 | 0.00 | 0.00 | 87 | 1015.7 |
| 20260903054603 | 65 | 0 | 0.0 | 5.0 | 0.00 | 0.00 | 0.00 | 86 | 1015.6 |
| 20260903054100 | 66 | 0 | 1.0 | 5.0 | 0.00 | 0.00 | 0.00 | 85 | 1015.9 |
| 20260903053601 | 66 | 245 | 0.0 | 5.0 | 0.00 | 0.00 | 0.00 | 85 | 1016.0 |
| 20260903053104 | 66 | 0 | 0.0 | 5.0 | 0.00 | 0.00 | 0.00 | 84 | 1015.9 |
| 20260903052603 | 66 | 0 | 0.0 | 4.0 | 0.00 | 0.00 | 0.00 | 83 | 1016.3 |
| 20260903052100 | 66 | 214 | 1.0 | 10.0 | 0.00 | 0.00 | 0.00 | 83 | 1016.3 |
| 20260903051616 | 66 | 170 | 2.0 | 10.0 | 0.00 | 0.00 | 0.00 | 83 | 1016.3 |
| 20260903051059 | 66 | 0 | 2.0 | 7.0 | 0.00 | 0.00 | 0.00 | 83 | 1016.2 |
| 20260903050601 | 66 | 176 | 1.0 | 5.0 | 0.00 | 0.00 | 0.00 | 83 | 1016.2 |
| 20260903050106 | 66 | 225 | 0.0 | 7.0 | 0.00 | 0.00 | 0.00 | 83 | 1016.1 |
| 20260903045600 | 66 | 167 | 0.0 | 7.0 | 0.00 | 0.00 | 0.00 | 83 | 1015.9 |
| 20260903045100 | 66 | 184 | 1.0 | 7.0 | 0.00 | 0.00 | 0.00 | 83 | 1016.0 |
| 20260903044602 | 66 | 0 | 0.0 | 8.0 | 0.00 | 0.00 | 0.00 | 83 | 1016.0 |
| 20260903044058 | 66 | 283 | 1.0 | 8.0 | 0.00 | 0.00 | 0.00 | 83 | 1016.0 |
| 20260903043600 | 66 | 186 | 0.0 | 9.0 | 0.00 | 0.00 | 0.00 | 83 | 1015.9 |
| 20260903043208 | 66 | 198 | 2.0 | 9.0 | 0.00 | 0.00 | 0.00 | 83 | 1015.9 |
| 20260903042557 | 66 | 146 | 1.0 | 4.0 | 0.00 | 0.00 | 0.00 | 83 | 1016.2 |
| 20260903042059 | 66 | 0 | 0.0 | 5.0 | 0.00 | 0.00 | 0.00 | 82 | 1016.3 |
| 20260903041607 | 66 | 0 | 1.0 | 5.0 | 0.00 | 0.00 | 0.00 | 82 | 1016.2 |
| 20260903041059 | 66 | 0 | 0.0 | 5.0 | 0.00 | 0.00 | 0.00 | 82 | 1016.2 |
| 20260903040559 | 66 | 298 | 0.0 | 5.0 | 0.00 | 0.00 | 0.00 | 81 | 1016.2 |
| 20260903040106 | 66 | 0 | 1.0 | 7.0 | 0.00 | 0.00 | 0.00 | 81 | 1016.0 |
| 20260903035559 | 66 | 108 | 2.0 | 7.0 | 0.00 | 0.00 | 0.00 | 80 | 1016.0 |
| 20260903035100 | 66 | 247 | 2.0 | 6.0 | 0.00 | 0.00 | 0.00 | 80 | 1016.0 |
| 20260903034604 | 66 | 143 | 1.0 | 4.0 | 0.00 | 0.00 | 0.00 | 80 | 1015.9 |
| 20260903034058 | 66 | 244 | 0.0 | 6.0 | 0.00 | 0.00 | 0.00 | 80 | 1015.9 |
| 20260903033602 | 66 | 272 | 1.0 | 7.0 | 0.00 | 0.00 | 0.00 | 80 | 1016.1 |
| 20260903033104 | 66 | 200 | 1.0 | 8.0 | 0.00 | 0.00 | 0.00 | 81 | 1016.2 |
| 20260903032600 | 66 | 143 | 2.0 | 10.0 | 0.00 | 0.00 | 0.00 | 81 | 1016.6 |
| 20260903032102 | 66 | 177 | 1.0 | 10.0 | 0.00 | 0.00 | 0.00 | 81 | 1016.8 |
| 20260903031603 | 65 | 172 | 2.0 | 10.0 | 0.00 | 0.00 | 0.00 | 82 | 1016.8 |
| 20260903031059 | 65 | 193 | 2.0 | 8.0 | 0.00 | 0.00 | 0.00 | 83 | 1016.9 |
| 20260903030559 | 65 | 237 | 1.0 | 6.0 | 0.00 | 0.00 | 0.00 | 85 | 1016.9 |
| 20260903030103 | 65 | 0 | 1.0 | 4.0 | 0.00 | 0.00 | 0.00 | 86 | 1017.1 |
| 20260903025559 | 65 | 179 | 0.0 | 6.0 | 0.00 | 0.00 | 0.00 | 86 | 1017.2 |
| 20260903025100 | 65 | 189 | 0.0 | 6.0 | 0.00 | 0.00 | 0.00 | 86 | 1017.2 |
| 20260903024608 | 65 | 173 | 1.0 | 6.0 | 0.00 | 0.00 | 0.00 | 86 | 1017.2 |
| 20260903024058 | 66 | 0 | 0.0 | 4.0 | 0.00 | 0.00 | 0.00 | 87 | 1017.3 |
| 20260903023557 | 66 | 257 | 0.0 | 5.0 | 0.00 | 0.00 | 0.00 | 87 | 1017.3 |
| 20260903023103 | 66 | 0 | 0.0 | 5.0 | 0.00 | 0.00 | 0.00 | 87 | 1017.5 |
| 20260903022602 | 66 | 0 | 0.0 | 5.0 | 0.00 | 0.00 | 0.00 | 86 | 1017.7 |
| 20260903022059 | 66 | 0 | 0.0 | 3.0 | 0.00 | 0.00 | 0.00 | 86 | 1017.7 |
| 20260903021606 | 66 | 306 | 0.0 | 2.0 | 0.00 | 0.00 | 0.00 | 86 | 1017.8 |
| 20260903021100 | 66 | 0 | 0.0 | 2.0 | 0.00 | 0.00 | 0.00 | 86 | 1017.7 |
| 20260903020559 | 66 | 325 | 0.0 | 2.0 | 0.00 | 0.00 | 0.00 | 86 | 1017.8 |
| 20260903015559 | 66 | 281 | 0.0 | 5.0 | 0.00 | 0.00 | 0.00 | 86 | 1018.0 |
| 20260903015100 | 66 | 288 | 1.0 | 5.0 | 0.00 | 0.00 | 0.00 | 86 | 1018.1 |
| 20260903014604 | 66 | 324 | 1.0 | 5.0 | 0.00 | 0.00 | 0.00 | 85 | 1018.2 |
| 20260903014100 | 66 | 0 | 0.0 | 5.0 | 0.00 | 0.00 | 0.00 | 85 | 1018.3 |
| 20260903013559 | 66 | 318 | 1.0 | 5.0 | 0.00 | 0.00 | 0.00 | 85 | 1018.4 |
| 20260903013110 | 66 | 205 | 1.0 | 5.0 | 0.00 | 0.00 | 0.00 | 85 | 1018.3 |
| 20260903012600 | 66 | 0 | 0.0 | 5.0 | 0.00 | 0.00 | 0.00 | 85 | 1018.2 |
| 20260903012101 | 67 | 330 | 0.0 | 3.0 | 0.00 | 0.00 | 0.00 | 85 | 1018.1 |
| 20260903011605 | 67 | 0 | 0.0 | 7.0 | 0.00 | 0.00 | 0.00 | 84 | 1018.1 |
| 20260903011100 | 66 | 0 | 0.0 | 7.0 | 0.00 | 0.00 | 0.00 | 84 | 1018.1 |
| 20260903010600 | 66 | 189 | 2.0 | 7.0 | 0.00 | 0.00 | 0.00 | 84 | 1018.0 |
| 20260903010106 | 66 | 158 | 1.0 | 7.0 | 0.00 | 0.00 | 0.00 | 84 | 1018.1 |
| 20260903005559 | 66 | 266 | 0.0 | 6.0 | 0.00 | 0.00 | 0.00 | 85 | 1018.1 |
| 20260903005058 | 66 | 0 | 1.0 | 6.0 | 0.00 | 0.00 | 0.00 | 85 | 1018.1 |
| 20260903004608 | 66 | 202 | 0.0 | 6.0 | 0.00 | 0.00 | 0.00 | 85 | 1018.2 |
| 20260903004102 | 66 | 257 | 0.0 | 6.0 | 0.00 | 0.00 | 0.00 | 85 | 1018.1 |
| 20260903003557 | 66 | 260 | 0.0 | 5.0 | 0.00 | 0.00 | 0.00 | 86 | 1018.2 |
| 20260903003104 | 66 | 0 | 1.0 | 5.0 | 0.00 | 0.00 | 0.00 | 85 | 1018.3 |
| 20260903002601 | 66 | 127 | 1.0 | 4.0 | 0.00 | 0.00 | 0.00 | 85 | 1018.0 |
| 20260903002100 | 66 | 266 | 1.0 | 4.0 | 0.00 | 0.00 | 0.00 | 85 | 1018.0 |
| 20260903001604 | 66 | 0 | 1.0 | 7.0 | 0.00 | 0.00 | 0.00 | 85 | 1018.0 |
| 20260903001058 | 66 | 211 | 2.0 | 7.0 | 0.00 | 0.00 | 0.00 | 85 | 1017.7 |
| 20260903000559 | 66 | 194 | 1.0 | 5.0 | 0.00 | 0.00 | 0.00 | 85 | 1017.7 |
| 20260903000103 | 66 | 144 | 0.0 | 3.0 | 0.00 | 0.00 | 0.00 | 85 | 1017.8 |
| 20260902235558 | 66 | 0 | 0.0 | 8.0 | 0.00 | 0.00 | 0.00 | 84 | 1017.5 |
| 20260902235058 | 66 | 356 | 1.0 | 8.0 | 0.00 | 0.00 | 0.00 | 84 | 1017.4 |
| 20260902234617 | 66 | 273 | 1.0 | 7.0 | 0.00 | 0.00 | 0.00 | 84 | 1017.1 |
| 20260902234059 | 66 | 0 | 1.0 | 7.0 | 0.00 | 0.00 | 0.00 | 84 | 1017.3 |
| 20260902233558 | 67 | 293 | 1.0 | 12.0 | 0.00 | 0.00 | 0.00 | 84 | 1017.4 |
| 20260902233116 | 67 | 287 | 1.0 | 12.0 | 0.00 | 0.00 | 0.00 | 84 | 1017.4 |
| 20260902232559 | 67 | 278 | 1.0 | 9.0 | 0.00 | 0.00 | 0.00 | 83 | 1017.3 |
| 20260902232057 | 67 | 285 | 2.0 | 13.0 | 0.00 | 0.00 | 0.00 | 83 | 1017.6 |
| 20260902231613 | 67 | 251 | 1.0 | 13.0 | 0.00 | 0.00 | 0.00 | 83 | 1017.6 |
| 20260902231100 | 67 | 229 | 2.0 | 13.0 | 0.00 | 0.00 | 0.00 | 83 | 1017.8 |
| 20260902230603 | 67 | 268 | 2.0 | 8.0 | 0.00 | 0.00 | 0.00 | 84 | 1018.1 |
| 20260902230107 | 67 | 236 | 0.0 | 7.0 | 0.00 | 0.00 | 0.00 | 84 | 1018.0 |
| 20260902225559 | 67 | 167 | 0.0 | 3.0 | 0.00 | 0.00 | 0.00 | 84 | 1018.3 |
| 20260902225058 | 67 | 254 | 0.0 | 3.0 | 0.00 | 0.00 | 0.00 | 85 | 1018.6 |
| 20260902224612 | 67 | 274 | 0.0 | 3.0 | 0.00 | 0.00 | 0.00 | 85 | 1018.9 |
| 20260902224058 | 67 | 321 | 0.0 | 3.0 | 0.00 | 0.00 | 0.00 | 85 | 1019.1 |
| 20260902223558 | 67 | 0 | 0.0 | 3.0 | 0.00 | 0.00 | 0.00 | 85 | 1019.3 |
| 20260902223102 | 67 | 0 | 0.0 | 4.0 | 0.00 | 0.00 | 0.00 | 85 | 1019.3 |
| 20260902222559 | 67 | 295 | 0.0 | 4.0 | 0.00 | 0.00 | 0.00 | 84 | 1019.4 |
| 20260902222058 | 67 | 0 | 0.0 | 4.0 | 0.00 | 0.00 | 0.00 | 85 | 1019.6 |
| 20260902221606 | 67 | 0 | 1.0 | 4.0 | 0.00 | 0.00 | 0.00 | 85 | 1019.7 |
| 20260902221057 | 67 | 240 | 1.0 | 3.0 | 0.00 | 0.00 | 0.00 | 85 | 1019.6 |
| 20260902220558 | 67 | 302 | 0.0 | 4.0 | 0.00 | 0.00 | 0.00 | 85 | 1019.6 |
| 20260902220107 | 67 | 330 | 1.0 | 4.0 | 0.00 | 0.00 | 0.00 | 85 | 1019.4 |
| 20260902215558 | 68 | 104 | 1.0 | 4.0 | 0.00 | 0.00 | 0.00 | 84 | 1019.5 |
| 20260902215057 | 68 | 343 | 0.0 | 5.0 | 0.00 | 0.00 | 0.00 | 84 | 1019.6 |
| 20260902214605 | 68 | 278 | 1.0 | 5.0 | 0.00 | 0.00 | 0.00 | 84 | 1019.7 |
| 20260902214058 | 68 | 328 | 0.0 | 2.0 | 0.00 | 0.00 | 0.00 | 84 | 1019.8 |
| 20260902213558 | 68 | 299 | 0.0 | 4.0 | 0.00 | 0.00 | 0.00 | 84 | 1019.8 |
| 20260902213129 | 68 | 345 | 1.0 | 5.0 | 0.00 | 0.00 | 0.00 | 84 | 1019.7 |
| 20260902212600 | 68 | 0 | 1.0 | 5.0 | 0.00 | 0.00 | 0.00 | 83 | 1019.7 |
| 20260902212059 | 68 | 288 | 1.0 | 3.0 | 0.00 | 0.00 | 0.00 | 84 | 1019.8 |
| 20260902211604 | 68 | 0 | 0.0 | 4.0 | 0.00 | 0.00 | 0.00 | 83 | 1019.7 |
| 20260902211059 | 68 | 248 | 0.0 | 10.0 | 0.00 | 0.00 | 0.00 | 82 | 1019.6 |
| 20260902210559 | 68 | 0 | 1.0 | 10.0 | 0.00 | 0.00 | 0.00 | 82 | 1019.5 |
| 20260902210104 | 68 | 250 | 3.0 | 10.0 | 0.00 | 0.00 | 0.00 | 81 | 1019.7 |
| 20260902205557 | 69 | 196 | 1.0 | 7.0 | 0.00 | 0.00 | 0.00 | 82 | 1019.8 |
| 20260902205058 | 69 | 142 | 1.0 | 12.0 | 0.00 | 0.00 | 0.00 | 81 | 1019.7 |
| 20260902204604 | 69 | 197 | 2.0 | 15.0 | 0.00 | 0.00 | 0.00 | 81 | 1019.8 |
| 20260902204101 | 69 | 138 | 4.0 | 15.0 | 0.00 | 0.00 | 0.00 | 81 | 1019.6 |
| 20260902203601 | 68 | 113 | 3.0 | 10.0 | 0.00 | 0.00 | 0.00 | 82 | 1019.7 |
| 20260902203108 | 68 | 172 | 2.0 | 9.0 | 0.00 | 0.00 | 0.00 | 81 | 1019.8 |
| 20260902202558 | 68 | 0 | 2.0 | 12.0 | 0.00 | 0.00 | 0.00 | 82 | 1019.9 |
| 20260902202057 | 68 | 183 | 4.0 | 14.0 | 0.00 | 0.00 | 0.00 | 81 | 1019.9 |
| 20260902201610 | 68 | 281 | 4.0 | 14.0 | 0.00 | 0.00 | 0.00 | 81 | 1019.9 |
| 20260902201059 | 68 | 187 | 5.0 | 14.0 | 0.00 | 0.00 | 0.00 | 81 | 1019.8 |
| 20260902200559 | 68 | 130 | 5.0 | 13.0 | 0.00 | 0.00 | 0.00 | 81 | 1019.9 |
| 20260902200135 | 68 | 165 | 4.0 | 16.0 | 0.00 | 0.00 | 0.00 | 81 | 1019.8 |
| 20260902195557 | 68 | 191 | 1.0 | 16.0 | 0.00 | 0.00 | 0.00 | 81 | 1019.8 |
| 20260902195057 | 69 | 176 | 3.0 | 9.0 | 0.00 | 0.00 | 0.00 | 83 | 1019.9 |
| 20260902194609 | 69 | 172 | 1.0 | 7.0 | 0.00 | 0.00 | 0.00 | 83 | 1020.0 |
| 20260902194101 | 69 | 160 | 1.0 | 7.0 | 0.00 | 0.00 | 0.00 | 82 | 1020.1 |
| 20260902193601 | 69 | 155 | 1.0 | 7.0 | 0.00 | 0.00 | 0.00 | 82 | 1020.2 |
| 20260902193104 | 68 | 150 | 1.0 | 5.0 | 0.00 | 0.00 | 0.00 | 82 | 1020.1 |
| 20260902192559 | 68 | 178 | 0.0 | 4.0 | 0.00 | 0.00 | 0.00 | 83 | 1020.1 |
| 20260902192057 | 68 | 72 | 0.0 | 8.0 | 0.00 | 0.00 | 0.00 | 83 | 1020.4 |
| 20260902191609 | 68 | 0 | 2.0 | 8.0 | 0.00 | 0.00 | 0.00 | 82 | 1020.5 |
| 20260902191059 | 68 | 319 | 1.0 | 8.0 | 0.00 | 0.00 | 0.00 | 81 | 1020.6 |
| 20260902190559 | 69 | 193 | 2.0 | 8.0 | 0.00 | 0.00 | 0.00 | 81 | 1020.5 |
| 20260902190114 | 69 | 0 | 3.0 | 8.0 | 0.00 | 0.00 | 0.00 | 81 | 1020.5 |
| 20260902185602 | 69 | 93 | 1.0 | 12.0 | 0.00 | 0.00 | 0.00 | 82 | 1020.5 |
| 20260902185100 | 69 | 145 | 2.0 | 12.0 | 0.00 | 0.00 | 0.00 | 81 | 1020.5 |
| 20260902184603 | 69 | 178 | 4.0 | 10.0 | 0.00 | 0.00 | 0.00 | 80 | 1020.4 |
| 20260902184058 | 69 | 224 | 4.0 | 12.0 | 0.00 | 0.00 | 0.00 | 80 | 1020.4 |
| 20260902183602 | 69 | 182 | 3.0 | 12.0 | 0.00 | 0.00 | 0.00 | 79 | 1020.5 |
| 20260902183119 | 70 | 175 | 4.0 | 10.0 | 0.00 | 0.00 | 0.00 | 79 | 1020.3 |
| 20260902182559 | 70 | 121 | 3.0 | 10.0 | 0.00 | 0.00 | 0.00 | 80 | 1020.3 |
| 20260902182059 | 69 | 146 | 1.0 | 10.0 | 0.00 | 0.00 | 0.00 | 79 | 1020.5 |
| 20260902181605 | 69 | 142 | 4.0 | 10.0 | 0.00 | 0.00 | 0.00 | 79 | 1020.5 |
| 20260902181059 | 70 | 84 | 2.0 | 7.0 | 0.00 | 0.00 | 0.00 | 79 | 1020.5 |
| 20260902180559 | 70 | 168 | 1.0 | 8.0 | 0.00 | 0.00 | 0.00 | 80 | 1020.6 |
| 20260902180131 | 70 | 142 | 3.0 | 9.0 | 0.00 | 0.00 | 0.00 | 79 | 1020.7 |
| 20260902175600 | 70 | 141 | 3.0 | 9.0 | 0.00 | 0.01 | 0.00 | 78 | 1020.6 |
| 20260902175059 | 70 | 160 | 1.0 | 5.0 | 0.00 | 0.01 | 0.00 | 80 | 1020.6 |
| 20260902174609 | 69 | 0 | 1.0 | 7.0 | 0.00 | 0.01 | 0.00 | 78 | 1020.6 |
| 20260902174059 | 69 | 0 | 1.0 | 7.0 | 0.00 | 0.01 | 0.00 | 77 | 1020.6 |
| 20260902173558 | 69 | 121 | 3.0 | 7.0 | 0.00 | 0.01 | 0.00 | 80 | 1020.5 |
| 20260902173103 | 69 | 131 | 2.0 | 7.0 | 0.00 | 0.01 | 0.00 | 79 | 1020.5 |
| 20260902172557 | 69 | 87 | 1.0 | 10.0 | 0.00 | 0.01 | 0.00 | 79 | 1020.5 |
| 20260902172100 | 69 | 195 | 2.0 | 11.0 | 0.00 | 0.01 | 0.00 | 77 | 1020.6 |
| 20260902171608 | 69 | 79 | 4.0 | 15.0 | 0.00 | 0.01 | 0.00 | 77 | 1020.6 |
| 20260902171100 | 69 | 153 | 4.0 | 15.0 | 0.00 | 0.01 | 0.00 | 78 | 1020.6 |
| 20260902170558 | 69 | 151 | 4.0 | 15.0 | 0.00 | 0.01 | 0.00 | 78 | 1020.7 |
| 20260902165559 | 69 | 99 | 3.0 | 12.0 | 0.00 | 0.01 | 0.00 | 78 | 1020.7 |
| 20260902165059 | 69 | 134 | 2.0 | 12.0 | 0.00 | 0.01 | 0.00 | 77 | 1020.7 |
| 20260902164619 | 69 | 184 | 3.0 | 8.0 | 0.00 | 0.01 | 0.00 | 78 | 1020.6 |
| 20260902164100 | 69 | 159 | 2.0 | 8.0 | 0.00 | 0.01 | 0.00 | 77 | 1020.7 |
| 20260902163600 | 69 | 145 | 2.0 | 8.0 | 0.00 | 0.01 | 0.00 | 81 | 1020.7 |
| 20260902163103 | 68 | 167 | 2.0 | 8.0 | 0.00 | 0.01 | 0.00 | 79 | 1020.8 |
| 20260902162559 | 68 | 202 | 2.0 | 8.0 | 0.00 | 0.01 | 0.00 | 79 | 1021.0 |
| 20260902162058 | 68 | 0 | 0.0 | 6.0 | 0.00 | 0.01 | 0.00 | 78 | 1021.1 |
| 20260902161608 | 68 | 0 | 2.0 | 6.0 | 0.00 | 0.01 | 0.00 | 77 | 1021.1 |
| 20260902161100 | 69 | 157 | 1.0 | 4.0 | 0.00 | 0.01 | 0.00 | 79 | 1021.0 |
| 20260902160559 | 68 | 206 | 2.0 | 6.0 | 0.00 | 0.01 | 0.00 | 77 | 1020.9 |
| 20260902160107 | 68 | 170 | 0.0 | 6.0 | 0.00 | 0.01 | 0.00 | 79 | 1020.8 |
| 20260902155559 | 68 | 146 | 0.0 | 7.0 | 0.00 | 0.02 | 0.00 | 81 | 1020.8 |
| 20260902155103 | 68 | 164 | 2.0 | 7.0 | 0.00 | 0.02 | 0.00 | 81 | 1020.9 |
| 20260902154605 | 68 | 0 | 1.0 | 6.0 | 0.00 | 0.02 | 0.00 | 80 | 1021.1 |
| 20260902154100 | 68 | 165 | 1.0 | 5.0 | 0.00 | 0.02 | 0.00 | 80 | 1021.4 |
| 20260902153600 | 68 | 181 | 1.0 | 5.0 | 0.00 | 0.02 | 0.00 | 80 | 1021.5 |
| 20260902153102 | 68 | 178 | 1.0 | 7.0 | 0.00 | 0.02 | 0.00 | 80 | 1021.6 |
| 20260902152558 | 67 | 0 | 0.0 | 7.0 | 0.00 | 0.02 | 0.00 | 80 | 1021.6 |
| 20260902152059 | 67 | 220 | 2.0 | 7.0 | 0.00 | 0.02 | 0.00 | 80 | 1021.5 |
| 20260902151601 | 67 | 152 | 1.0 | 6.0 | 0.00 | 0.02 | 0.00 | 79 | 1021.5 |
| 20260902151100 | 68 | 150 | 2.0 | 7.0 | 0.00 | 0.02 | 0.00 | 80 | 1021.5 |
| 20260902150559 | 68 | 178 | 2.0 | 7.0 | 0.00 | 0.02 | 0.00 | 79 | 1021.5 |
| 20260902150104 | 68 | 172 | 1.0 | 6.0 | 0.00 | 0.02 | 0.00 | 80 | 1021.4 |
| 20260902145559 | 67 | 177 | 0.0 | 5.0 | 0.00 | 0.02 | 0.00 | 82 | 1021.4 |
| 20260902145059 | 67 | 174 | 1.0 | 5.0 | 0.00 | 0.02 | 0.00 | 80 | 1021.5 |
| 20260902144605 | 66 | 0 | 0.0 | 5.0 | 0.00 | 0.02 | 0.00 | 83 | 1021.6 |
| 20260902144059 | 66 | 148 | 0.0 | 3.0 | 0.00 | 0.02 | 0.00 | 85 | 1021.7 |
| 20260902143559 | 66 | 130 | 0.0 | 4.0 | 0.00 | 0.02 | 0.00 | 84 | 1021.6 |
| 20260902143105 | 66 | 0 | 1.0 | 4.0 | 0.00 | 0.02 | 0.00 | 82 | 1021.8 |
| 20260902142559 | 65 | 167 | 0.0 | 2.0 | 0.00 | 0.02 | 0.00 | 83 | 1021.8 |
| 20260902142102 | 65 | 0 | 0.0 | 2.0 | 0.00 | 0.02 | 0.00 | 83 | 1021.8 |
| 20260902141602 | 66 | 0 | 0.0 | 2.0 | 0.00 | 0.02 | 0.00 | 82 | 1021.8 |
| 20260902141059 | 66 | 269 | 0.0 | 3.0 | 0.00 | 0.02 | 0.00 | 82 | 1021.8 |
| 20260902140559 | 66 | 317 | 0.0 | 4.0 | 0.00 | 0.02 | 0.00 | 82 | 1021.6 |
| 20260902140104 | 67 | 0 | 1.0 | 7.0 | 0.00 | 0.02 | 0.00 | 81 | 1021.5 |
| 20260902135557 | 67 | 0 | 0.0 | 7.0 | 0.00 | 0.02 | 0.00 | 78 | 1021.3 |
| 20260902135058 | 67 | 164 | 3.0 | 7.0 | 0.00 | 0.02 | 0.00 | 78 | 1021.2 |
| 20260902134611 | 67 | 110 | 3.0 | 7.0 | 0.00 | 0.02 | 0.00 | 78 | 1021.1 |
| 20260902134058 | 67 | 168 | 0.0 | 6.0 | 0.00 | 0.02 | 0.00 | 78 | 1021.1 |
| 20260902133558 | 67 | 0 | 0.0 | 8.0 | 0.00 | 0.02 | 0.00 | 75 | 1021.1 |
| 20260902133104 | 68 | 226 | 2.0 | 8.0 | 0.00 | 0.02 | 0.00 | 77 | 1021.1 |
| 20260902132603 | 68 | 131 | 3.0 | 8.0 | 0.00 | 0.02 | 0.00 | 75 | 1021.0 |
| 20260902132058 | 68 | 168 | 2.0 | 6.0 | 0.00 | 0.02 | 0.00 | 76 | 1020.9 |
| 20260902131617 | 68 | 130 | 2.0 | 7.0 | 0.00 | 0.02 | 0.00 | 81 | 1020.8 |
| 20260902131101 | 67 | 127 | 1.0 | 7.0 | 0.00 | 0.02 | 0.00 | 81 | 1020.8 |
| 20260902130558 | 66 | 150 | 1.0 | 5.0 | 0.00 | 0.02 | 0.00 | 85 | 1021.0 |
| 20260902130103 | 66 | 184 | 0.0 | 4.0 | 0.00 | 0.02 | 0.00 | 86 | 1021.0 |
| 20260902125558 | 65 | 124 | 1.0 | 7.0 | 0.00 | 0.04 | 0.00 | 85 | 1020.9 |
| 20260902125103 | 65 | 147 | 2.0 | 7.0 | 0.00 | 0.04 | 0.00 | 87 | 1020.8 |
| 20260902124603 | 65 | 0 | 0.0 | 4.0 | 0.00 | 0.04 | 0.00 | 87 | 1020.8 |
| 20260902124100 | 65 | 0 | 0.0 | 4.0 | 0.00 | 0.04 | 0.00 | 86 | 1020.8 |
| 20260902123600 | 65 | 165 | 0.0 | 5.0 | 0.00 | 0.04 | 0.00 | 86 | 1020.7 |
| 20260902123103 | 65 | 0 | 1.0 | 9.0 | 0.00 | 0.04 | 0.00 | 86 | 1020.8 |
| 20260902122558 | 64 | 0 | 2.0 | 9.0 | 0.00 | 0.04 | 0.00 | 86 | 1020.6 |
| 20260902122101 | 64 | 120 | 1.0 | 6.0 | 0.00 | 0.04 | 0.00 | 87 | 1020.6 |
| 20260902121605 | 64 | 174 | 1.0 | 6.0 | 0.00 | 0.04 | 0.00 | 87 | 1020.6 |
| 20260902121101 | 64 | 198 | 0.0 | 2.0 | 0.00 | 0.04 | 0.00 | 87 | 1020.6 |